Погода в Йонаго

Япония     35°25′52″N   133°19′47″E
В апреле 2022 года жителям России запретили посещать сайт meteo.paraplan.net по решению Генеральной прокуратуры. Аудитория сайта уменьшилась в 10 раз. Владельцы сайта не видят смысла в поддержке погодного сервера в таких условиях. Сайт будет закрыт в октябре.
темп.,
°C
ветер,
м/с
пор.,
м/с
влажн.,
%
обл.,
%
осадки,
мм/ч
давл.,
гПа
погр.,
м
5 октября, ср
ср500:00+20св8988100 3.6 1015862
03:00+19св101183100 5.6 10151009
06:00+19св101183100 1.4 10171095
09:00+18св111283100 2.4 10181152
12:00+19всв101175100 0.6 10181253
15:00+18св910665 0.8 10191095
18:00+18всв810670 0.0 1018986
21:00+18всв79670 0.0 10201042
6 октября, чт
чт600:00+17всв7968100 0.0 10201082
03:00+17всв81067100 0.0 10201186
06:00+18всв81066100 0.0 10201150
09:00+19в81061100 0.0 10201390
12:00+19всв91062100 0.0 10191414
15:00+19в6760100 0.0 10181219
18:00+19в81065100 0.0 10181041
21:00+18вюв5768100 0.0 1019764
7 октября, пт
пт700:00+17вюв3569100 0.0 1018522
03:00+17вюв3570100 0.0 1017478
06:00+16ююв3369100 0.1 1017285
09:00+17ююв2268100 0.1 1017241
12:00+19сз1259100 0.0 1015629
15:00+19ссв3367100 0.1 1015640
18:00+18св8881100 1.1 1017711
21:00+18св121481100 4.5 10191259
8 октября, сб
сб800:00+18св101272100 1.9 10201333
03:00+18св797284 2.9 10201005
06:00+18св897792 2.1 1022969
09:00+18всв8976100 4.8 10231135
12:00+19всв8971100 1.6 10221231
15:00+19всв997685 2.1 10221140
18:00+18всв91174100 0.6 10221229
21:00+18в71073100 0.9 10231032
9 октября, вс
вс900:00+18в6874100 0.1 1023871
03:00+17в5775100 0.1 1022806
06:00+17в5776100 0.2 1022731
09:00+17в3479100 0.4 1022517
12:00+17вюв2383100 0.5 1020230
15:00+17всв2278100 0.5 1019263
18:00+17ю3479100 0.0 1019364
21:00+17ююв4581100 0.1 1019355